Time,TemperatureF,DewpointF,PressureIn,WindDirection,WindDirectionDegrees,WindSpeedMPH,WindSpeedGustMPH,Humidity,HourlyPrecipIn,Conditions,Clouds,dailyrainin,SoftwareType,DateUTC
2013-03-15 00:00:00,25.0,-99.9,-100.00,North,0,0.0,0.0,-999,-99.99,,,0.00,,2013-03-15 06:00:00,
2013-03-15 00:43:00,25.0,-99.9,-100.00,North,0,0.0,0.0,-999,-99.99,,,0.00,,2013-03-15 06:43:00,
2013-03-15 00:53:00,25.0,-99.9,-100.00,North,0,0.0,0.0,-999,-99.99,,,0.00,,2013-03-15 06:53:00,
2013-03-15 01:00:00,25.0,-99.9,-100.00,North,360,0.0,0.0,-999,-99.99,,,0.00,,2013-03-15 07:00:00,
2013-03-15 01:53:00,25.0,-99.9,-100.00,North,-999,-999.0,-999.0,-999,-99.99,,,0.00,,2013-03-15 07:53:00,
2013-03-15 02:00:00,24.0,-99.9,-100.00,North,0,0.0,0.0,-999,-99.99,,,0.00,,2013-03-15 08:00:00,
2013-03-15 03:00:00,23.0,-99.9,-100.00,North,360,0.0,0.0,-999,-99.99,,,0.00,,2013-03-15 09:00:00,
2013-03-15 04:00:00,24.0,-99.9,-100.00,North,360,0.0,0.0,-999,-99.99,,,0.00,,2013-03-15 10:00:00,
2013-03-15 05:00:00,23.0,-99.9,-100.00,North,0,0.0,0.0,-999,-99.99,,,0.00,,2013-03-15 11:00:00,
2013-03-15 06:00:00,21.0,-99.9,-100.00,North,0,0.0,0.0,-999,-99.99,,,0.00,,2013-03-15 12:00:00,
2013-03-15 07:00:00,21.0,-99.9,-100.00,North,360,0.0,0.0,-999,-99.99,,,0.00,,2013-03-15 13:00:00,
2013-03-15 08:00:00,21.0,-99.9,-100.00,North,0,0.0,0.0,-999,-99.99,,,0.00,,2013-03-15 14:00:00,
2013-03-15 09:00:00,34.0,-99.9,-100.00,North,360,0.0,0.0,-999,-99.99,,,-99.99,,2013-03-15 15:00:00,
2013-03-15 10:00:00,51.0,-99.9,-100.00,North,0,0.0,0.0,-999,-99.99,,,-99.99,,2013-03-15 16:00:00,
2013-03-15 11:00:00,53.0,-99.9,-100.00,North,0,4.0,11.0,-999,-99.99,,,0.00,,2013-03-15 17:00:00,
2013-03-15 12:00:00,55.0,-99.9,-100.00,North,0,5.0,13.0,-999,-99.99,,,0.00,,2013-03-15 18:00:00,
2013-03-15 13:00:00,55.0,-99.9,-100.00,North,0,7.0,17.0,-999,-99.99,,,-99.99,,2013-03-15 19:00:00,
2013-03-15 14:00:00,56.0,-99.9,-100.00,North,0,7.0,18.0,-999,-99.99,,,0.00,,2013-03-15 20:00:00,
2013-03-15 15:00:00,55.0,-99.9,-100.00,North,0,4.0,16.0,-999,-99.99,,,0.00,,2013-03-15 21:00:00,
2013-03-15 16:00:00,56.0,-99.9,-100.00,North,0,6.0,22.0,-999,-99.99,,,0.00,,2013-03-15 22:00:00,
2013-03-15 17:00:00,55.0,-99.9,-100.00,North,0,5.0,18.0,-999,-99.99,,,0.00,,2013-03-15 23:00:00,
2013-03-15 19:00:00,47.0,-99.9,-100.00,North,-999,-999.0,-999.0,-999,-99.99,,,-99.99,,2013-03-16 01:00:00,
2013-03-15 19:53:00,47.0,-99.9,-100.00,North,-999,-999.0,-999.0,-999,-99.99,,,-99.99,,2013-03-16 01:53:00,
2013-03-15 20:00:00,39.0,-99.9,-100.00,North,0,0.0,0.0,-999,-99.99,,,0.00,,2013-03-16 02:00:00,
2013-03-15 23:00:00,34.0,-99.9,-100.00,North,360,0.0,0.0,-999,-99.99,,,0.00,,2013-03-16 05:00:00,